Back to catalog

CZ-6A DEB

AliveSSO
NORAD 56647·DEBRIS·🇨🇳 China

Launched Nov 11, 2022 from Taiyuan Satellite Launch Center

Loading…

Next Passes (next 24 hours)

TLE

FreshSource: Space-Track

Epoch: Sep 13, 2026, 06:00 UTC

1 56647U 22151AFX 26256.25040222  .00001803  00000-0  88281-3 0  9999
2 56647  98.8165 263.0909 0041020  61.7131 298.8174 14.18684337183727

Track CZ-6A DEB in real time with AllMySat

Download on the App Store